Weather History for KMLS - July, 2013

Change the Weather History Date:

Wednesday, July 31, 2013

  Actual Average Record
Temperature  
Mean Temperature 72 °F 76 °F  
Max Temperature 86 °F 90 °F 105 °F (2007)
Min Temperature 57 °F 61 °F 47 °F (1995)
Degree Days  
Heating Degree Days 0 0  
Month to date heating degree days 0 10  
Since 1 June heating degree days 59 101  
Since 1 July heating degree days 0 12  
Cooling Degree Days 7 11  
Month to date cooling degree days 319 288  
Year to date cooling degree days 425 415  
Since 1 June cooling degree days 412 395  
Growing Degree Days 20 (Base 50)    
Moisture  
Dew Point 52 °F    
Average Humidity 61    
Maximum Humidity 93    
Minimum Humidity 29    
Precipitation  
Precipitation 0.11 in 0.05 in 1.72 in (2001)
Month to date precipitation 1.09 1.64  
Year to date precipitation 12.12 8.85  
Sea Level Pressure  
Sea Level Pressure 30.13 in    
Wind  
Wind Speed 5 mph (North)    
Max Wind Speed 14 mph    
Max Gust Speed 16 mph    
Visibility 10 miles    
Events Rain , Thunderstorm    
T = Trace of Precipitation, MM = Missing Value Source: NWS Daily Summary

Daily Weather History Graph

Daily Weather History Graph

Search for Another Location

Airport or City:

Trip Planner

Search our weather history database for the weather conditions in past years. The results will help you decide how hot, cold, wet, or windy it might be!

Date:

Astronomy

Jul. 31, 2013 Rise Set
Actual Time 5:43 AM MDT 8:35 PM MDT
Civil Twilight 5:08 AM MDT 9:10 PM MDT
Nautical Twilight 4:24 AM MDT 9:54 PM MDT
Astronomical Twilight 3:30 AM MDT 10:47 PM MDT
Moon 12:41 AM MDT (7/31) 3:54 PM MDT (7/31)
Length of Visible Light 16h 01m
Length of Day
14h 51m
Waning Crescent, 31% of the Moon is Illuminated
Jul 31
Waning Crescent
Aug 6
New
Aug 14
First Quarter
Aug 20
Full
Aug 28
Last Quarter

Hourly Weather History & Observations

Time (MDT) Temp. Dew Point Humidity Pressure Visibility Wind Dir Wind Speed Gust Speed Precip Events Conditions
12:53 AM 64.9 °F 54.0 °F 68% 30.16 in 10.0 mi NNE 6.9 mph - N/A   Mostly Cloudy
1:53 AM 64.0 °F 55.9 °F 75% 30.17 in 8.0 mi North 6.9 mph - 0.01 in Rain Rain
2:44 AM 60.8 °F 55.4 °F 82% 30.21 in 10.0 mi SSW 4.6 mph - 0.10 in Thunderstorm Clear
2:53 AM 62.1 °F 55.0 °F 78% 30.17 in 10.0 mi Calm Calm - 0.10 in Thunderstorm Partly Cloudy
3:05 AM 64.4 °F 53.6 °F 68% 30.22 in 10.0 mi Calm Calm - N/A   Partly Cloudy
3:53 AM 61.0 °F 55.0 °F 81% 30.18 in 10.0 mi Calm Calm - N/A   Clear
4:53 AM 57.9 °F 55.0 °F 90% 30.19 in 10.0 mi NW 3.5 mph - N/A   Clear
5:53 AM 57.9 °F 55.0 °F 90% 30.18 in 10.0 mi WNW 4.6 mph - N/A   Clear
6:53 AM 59.0 °F 55.0 °F 87% 30.20 in 10.0 mi NW 4.6 mph - N/A   Clear
7:53 AM 63.0 °F 55.9 °F 78% 30.19 in 10.0 mi West 3.5 mph - N/A   Clear
8:53 AM 66.9 °F 57.9 °F 73% 30.19 in 10.0 mi SSW 4.6 mph - N/A   Clear
9:53 AM 73.0 °F 54.0 °F 51% 30.18 in 10.0 mi SW 4.6 mph - N/A   Clear
10:53 AM 75.0 °F 55.0 °F 50% 30.18 in 10.0 mi Variable 3.5 mph - N/A   Clear
11:53 AM 75.9 °F 52.0 °F 43% 30.17 in 10.0 mi Calm Calm - N/A   Clear
12:53 PM 80.1 °F 52.0 °F 38% 30.14 in 10.0 mi North 5.8 mph - N/A   Clear
1:53 PM 80.1 °F 51.1 °F 36% 30.12 in 10.0 mi Calm Calm - N/A   Clear
2:53 PM 82.0 °F 48.0 °F 30% 30.11 in 10.0 mi SSW 8.1 mph - N/A   Clear
3:53 PM 84.0 °F 48.9 °F 29% 30.08 in 10.0 mi Variable 4.6 mph - N/A   Clear
4:53 PM 84.0 °F 48.0 °F 28% 30.06 in 10.0 mi Calm Calm - N/A   Clear
5:53 PM 84.9 °F 48.0 °F 28% 30.04 in 10.0 mi SW 5.8 mph - N/A   Clear
6:53 PM 82.9 °F 48.9 °F 31% 30.04 in 10.0 mi ENE 9.2 mph - N/A   Clear
7:53 PM 80.1 °F 50.0 °F 35% 30.04 in 10.0 mi NE 9.2 mph - N/A   Clear
8:53 PM 75.0 °F 50.0 °F 41% 30.05 in 10.0 mi NE 11.5 mph - N/A   Clear
9:53 PM 73.0 °F 48.9 °F 42% 30.06 in 10.0 mi ENE 11.5 mph - N/A   Clear
10:53 PM 70.0 °F 48.0 °F 46% 30.06 in 10.0 mi ENE 8.1 mph - N/A   Clear
11:53 PM 68.0 °F 48.9 °F 50% 30.06 in 10.0 mi NE 6.9 mph - N/A   Clear